STARLINK-35228 (65517 NORAD) Tracking and Keplerian Element Data

This shows tracking and keplerian element data for the satellite.

Feedback or suggestion? Click here.




ElementValue
Catalog65517
NameSTARLINK-35228
Epoch Orbit1639
Epoch Day354.10051339
Epoch Year2025
RAAN283.5919
Inclination53.161
Eccentricity0.000168
Argument of Perigee101.0341
Mean Anonmoly259.0853
Mean Motion15.39633467
Decay Rate0.00024925
L11 65517U 25198AB 25354.10051339 .00024925 00000+0 63079-3 0 9999
L22 65517 53.1610 283.5919 0001680 101.0341 259.0853 15.39633467 16392



Live tracking and technical data element details for STARLINK-35228 (NORAD 65517). STARLINK-35228 can be tracked NOW for your location showing map with azimuth and elevation plus other details from your city location.







IsCatalogInMostPopularTable: catalog: 65517, numindb: 8
Update: records affected: 1



GetName: 65517 STARLINK-35228

Hit Count: updated at: Mon, 20 Apr 2026 08:56:19 GMT